Retour au catalogue

STARLINK-31634

ActifCommunicationsVLEO
NORAD 59330·PAYLOAD·🇺🇸 United States

Lancé Mar 25, 2024 depuis Cape Canaveral Space Force Station

Loading…

Prochains Passages (prochaines 24 heures)

TLE

FraisSource: CelesTrak SupGP

Époque: Sep 15, 2026, 02:32 UTC

1 59330C 24057L   26258.10604167 -.00051985  00000+0 -18833-2 0  2588
2 59330  43.0026 197.5710 0001397 273.2638 145.1260 15.27596504    12

Suivez STARLINK-31634 en temps réel avec AllMySat

Download on the App Store